Regional Weather Roundup
Issued by NWS Albany, NY

Home | Current Version | Previous Version | Text Only | Print | Product List | Glossary On
Versions: 1 2 3 4 5 6 7 8 9 10 11 12 13 14 15 16 17 18 19 20 21 22 23 24 25 26 27 28 29 30 31 32 33 34 35 36 37 38 39 40 41 42 43 44 45 46 47 48 49 50
000
ASUS41 KALY 190810
RWRALY

NEW YORK STATE HOURLY WEATHER ROUNDUP
NATIONAL WEATHER SERVICE ALBANY NY
400 AM EDT FRI SEP 19 2014

NOTE: "FAIR" INDICATES FEW OR NO CLOUDS BELOW 12,000 FEET WITH NO
SIGNIFICANT WEATHER AND/OR NO OBSTRUCTIONS TO VISIBILITY.

NYZ032-033-038>043-046>054-057>066-NYZ062>081-190900-
EAST


CITY           SKY/WX    TMP DP  RH WIND       PRES   REMARKS
ALBANY         PTCLDY    45  36  70 N7        30.29R
GLENS FALLS    CLEAR     37  34  89 CALM      30.29R
POUGHKEEPSIE   CLEAR     48  43  82 N5        30.22R
MONTGOMERY     CLOUDY    50  46  86 NE6       30.22R
WHITE PLAINS   CLEAR     53  48  83 N6        30.18R
ISLIP          CLEAR     58  51  78 N10       30.16R
NEW YORK CITY  CLEAR     60  50  69 N8        30.17R
CENTRAL PARK   CLEAR     61  47  59 VRB7      30.20R
$$

NYZ005>009-017-018-044>046-055-056-190900-
CENTRAL


CITY           SKY/WX    TMP DP  RH WIND       PRES   REMARKS
FULTON         CLEAR     35  32  88 CALM      30.31R
SYRACUSE       PTCLDY    39  36  89 CALM      30.29R
ROME           CLEAR     36  35  96 CALM      30.31R
ELMIRA         FOG       40  40 100 CALM      30.26S VSB 1/4
BINGHAMTON     CLEAR     40  37  89 NE5       30.24R
MONTICELLO     PTCLDY    43  43 100 MISG      30.23R
$$

NYZ026>034-041>043-190900-
NORTH


CITY           SKY/WX    TMP DP  RH WIND       PRES   REMARKS
WATERTOWN      CLEAR     34  29  82 CALM      30.33R
FORT DRUM      NOT AVBL
MASSENA        CLEAR     32  30  92 CALM      30.35R
SARANAC LAKE   CLEAR     24  22  91 CALM      30.26R
PLATTSBURGH    CLEAR     34  32  92 CALM      30.32R
$$

NYZ001>004-010>016-019>021-190900-
WEST


CITY           SKY/WX    TMP DP  RH WIND       PRES   REMARKS
NIAGARA FALLS  PTCLDY    38  37  97 E3        30.26S FOG
BUFFALO        PTCLDY    41  38  89 NE6       30.26S
DUNKIRK        CLEAR     39  38  96 CALM      30.25R
JAMESTOWN      CLOUDY    39  39 100 CALM      30.23S VSB<1/4
WELLSVILLE     FOG       42  40  92 CALM      30.24S VSB 1/4
ROCHESTER      MOCLDY    46  39  76 E6        30.29S
PENN YAN       CLEAR     39  36  89 N3        30.27R
$$

             KEY
       WCI = WIND CHILL INDEX
       VSB = VISIBILITY
       HX  = HEAT INDEX
$$



USA.gov is the U.S. government's official web portal to all federal, state and local government web resources and services.